Overview Statistics Trail Chart Weather Telemetry Raw packets
 

This is the latest recevied weather packets stored in our database for station/object KH6HHG. If no packets are shown the sender has not sent any weather packets the latest 10 day(s).

<< 64 65 66 67 68 69 70 >>
Time Temp. Humidity Pressure Rain* Wind** Luminosity Snow
1777243748 24.44° C 77% 1012 hPa 0 mm - - -
1777243448 24.44° C 78% 1012 hPa 0 mm - - -
1777243148 23.89° C 80% 1012.2 hPa 0 mm - - -
1777242848 23.33° C 82% 1012.2 hPa 0 mm - - -
1777242548 22.78° C 84% 1012.3 hPa 0 mm - - -
1777242248 22.78° C 82% 1012.4 hPa 0 mm - - -
1777241948 22.78° C 80% 1012.5 hPa 0 mm - - -
1777241648 23.33° C 80% 1012.5 hPa 0 mm - - -
1777241348 23.33° C 79% 1012.6 hPa 0 mm - - -
1777241048 23.33° C 81% 1012.7 hPa 0 mm - - -
1777240748 23.33° C 80% 1012.7 hPa 0 mm - - -
1777240448 23.33° C 78% 1012.8 hPa 0 mm - - -
1777240148 23.89° C 78% 1012.8 hPa 0 mm - - -
1777239848 25° C 75% 1012.9 hPa 0 mm - - -
1777239548 25.56° C 76% 1012.8 hPa 0 mm - - -
1777239248 25.56° C 69% 1012.8 hPa 0 mm - - -
1777238948 26.11° C 66% 1012.9 hPa 0 mm - - -
1777238648 26.67° C 66% 1012.9 hPa 0 mm - - -
1777238348 26.67° C 65% 1012.9 hPa 0 mm - - -
1777238048 26.67° C 63% 1012.9 hPa 0 mm - - -
1777237748 26.67° C 62% 1013 hPa 0 mm - - -
1777237448 26.67° C 61% 1013.1 hPa 0 mm - - -
1777237148 26.67° C 61% 1013.1 hPa 0 mm - - -
1777236848 26.11° C 64% 1013 hPa 0 mm - - -
1777236548 26.11° C 64% 1013 hPa 0 mm - - -

* Rain latest hour (hover to see other rain measurements)
** Current wind speed in m/s (hover to see current wind gust speed)